Location: Bern�tre
(50.1974°N, 2.0915°E)
Time: 05:39:04
(UTC+00:00)

Cosmos 1544 - Pass Details

Date: 18 September 2020
Orbit: 471 x 491 km, 82.5° (Epoch: 29 October)

Event Time Altitude Azimuth Distance (km) Brightness Sun altitude
Rises 18:55:11 0° 204° (SSW) 2,556 6.9 -9.9°
Reaches altitude 10° 18:57:21 10° 211° (SSW) 1,677 6.0 -10.2°
Maximum altitude 19:00:53 44° 285° (WNW) 689 4.4 -10.8°
Drops below altitude 10° 19:04:25 10° 358° (N) 1,682 6.0 -11.3°
Sets 19:06:36 0° 5° (N) 2,564 6.9 -11.7°
